sat.trackr.live / text

‹ back to catalog

STARLINK-31280

NORAD 58843 · 2024-017T

PAYLOAD ACTIVE UNKNOWN

§ Identity

Operator
Country
US
Launch date
2024-01-24
Launch site
AFWTR
Launch vehicle
Mass (kg)
RCS (m²)

Purposes: comms

External: N2YO · Heavens-Above · Gunter

§ Orbital elements

Epoch: 2026-05-24T21:50:51.389664Z

Period
94.11 min
Inclination
53.1595°
Eccentricity
0.0001289
Mean motion
15.30188062 rev/d
Perigee alt
474.4 km
Apogee alt
476.1 km
Semi-major
6,853.4 km
B*
5.2364e-5
RAAN
210.4445°
Arg perigee
77.9406°
Mean anomaly
282.1739°
Rev number
13,172

§ Raw data

STARLINK-312801 58843U 24017T   26144.91031701  .00001191  00000+0  52364-4 0  99962 58843  53.1595 210.4445 0001289  77.9406 282.1739 15.30188062131721

JSON: /api/v1/satellites/58843 · /tle

For live sub-satellite position, see the globe view (requires WebGL).

§ Visibility from observer

Set your observer location to see the next 7 days of passes ≥ 10°. The values pass through the URL so the page stays shareable.

No JS? Fill the form by hand. The geolocation button needs JavaScript.